Location: Bennemühlen
(52.5740°N, 9.7135°E)
Time: 21:55:38
(UTC+00:00)

Vanguard 1 Rocket - Visible Passes

Search period start: 18 February 2026 00:00
Search period end: 28 February 2026 00:00
Orbit: 652 x 4215 km, 34.3° (Epoch: 18 February)

Date Brightness Start Highest point End Pass type
(mag) Time Alt. Az. Time Alt. Az. Time Alt. Az.
18 Feb 11.3 16:45:35 10° WSW 16:59:37 36° SSW 17:20:22 10° SE visible
18 Feb 11.8 19:13:50 10° WSW 19:27:15 21° SW 19:43:13 10° S visible
19 Feb 11.6 17:59:17 10° WSW 18:13:13 28° SSW 18:31:47 10° SSE visible
20 Feb 11.4 16:46:04 10° WSW 16:59:09 32° SSW 17:18:30 10° SSE visible
20 Feb 11.9 19:15:38 10° WSW 19:26:27 17° SW 19:39:08 10° S visible
21 Feb 11.7 18:00:15 10° WSW 18:12:38 23° SSW 18:28:55 10° S visible
22 Feb 12.0 19:19:11 10° WSW 19:25:43 12° SW 19:32:59 10° SSW visible
23 Feb 11.9 18:01:44 10° WSW 18:12:06 18° SW 18:25:18 10° S visible
25 Feb 12.0 18:04:21 10° WSW 18:11:38 14° SW 18:20:19 10° SSW visible
